RH
9 8 6 5 6 7 8 8 7 6 8 10 9 10 9 13 16 21 27 39 40 39 36 37 39 40 41 43 49 55 88 98 98 96 59 54 54 60 48 48 56 58 62 65
10 8 6 7 7 7 6 7 8 6 9 10 9 10 8 11 14 16 22 32 37 35 37 39 44 45 50 51 53 62 84 88 95 97 86 60 62 48 46 54 63 64 63 64
8 8 8 8 7 7 6 7 7 10 10 8 9 12 10 10 12 16 18 21 30 31 39 41 43 45 45 52 56 68 74 69 68 77 78 72 58 62 56 48 45 62 59 68
8 6 9 8 8 7 8 7 7 8 9 9 10 11 13 10 11 17 18 20 22 31 36 39 41 48 48 49 52 58 62 69 66 66 75 73 58 50 48 49 51 55 60 68
10 9 9 9 7 7 9 9 9 9 10 10 9 9 10 10 10 12 13 18 21 28 33 35 37 45 48 44 49 55 62 66 67 70 70 57 59 47 45 47 58 63 61 58
10 8 8 8 7 8 8 10 10 10 9 11 10 9 9 9 13 11 15 18 21 25 32 34 36 42 46 43 47 50 63 73 76 68 64 65 65 63 54 59 50 47 41 50
11 9 7 8 10 9 10 11 14 16 13 12 12 10 11 9 9 12 14 17 21 24 31 35 40 46 52 48 47 51 64 79 73 64 62 62 65 62 66 60 52 61 49 55
12 12 9 8 9 11 11 11 12 20 14 18 12 13 14 11 8 12 18 18 20 24 28 32 37 42 46 46 47 48 62 79 72 61 64 64 58 49 46 60 57 50 60 62
11 11 8 8 8 8 10 13 8 12 11 11 9 9 9 10 9 12 18 21 23 26 27 29 30 40 42 44 46 45 60 78 63 61 66 66 64 65 63 65 64 54 70 64
10 14 8 8 8 8 9 8 12 10 21 20 12 13 12 15 11 21 27 25 27 27 26 28 34 38 39 39 44 48 61 62 60 58 59 58 61 61 63 66 63 72 74 80
8 12 11 10 11 10 11 11 11 8 12 19 18 24 28 14 11 14 23 26 31 30 28 31 35 38 37 39 43 48 52 56 55 53 55 58 55 57 63 64 60 67 78 81
9 11 14 10 6 7 9 11 11 13 20 13 14 12 11 11 12 13 19 28 30 29 31 34 36 37 37 39 41 45 48 46 49 52 55 57 55 61 62 62 58 66 76 77
10 13 16 15 9 9 10 8 10 14 18 24 24 16 24 11 14 18 20 29 34 33 38 38 40 41 43 47 53 46 39 42 47 51 51 53 52 67 75 60 62 65 68 72
26 14 18 12 19 13 13 10 9 12 16 15 12 13 15 12 15 26 23 34 34 40 43 44 47 50 53 60 64 47 38 40 45 44 47 53 58 69 69 62 62 64 67 70
15 23 16 12 9 9 9 9 9 11 12 15 17 24 29 26 25 22 26 38 38 41 44 47 49 55 55 55 57 41 43 42 45 48 46 52 53 70 66 60 67 69 68 67
16 25 21 16 10 9 9 8 8 10 10 12 12 14 14 20 23 23 30 40 42 40 39 45 47 53 52 56 47 44 44 47 49 50 48 52 54 60 68 62 71 76 72 70
22 23 25 22 11 10 14 11 9 10 10 11 14 20 21 23 29 30 30 37 39 40 37 43 46 49 51 48 46 47 48 49 53 52 48 56 61 74 68 61 71 76 78 73
33 34 26 21 17 24 14 10 10 11 12 10 11 15 24 30 33 34 34 30 36 37 37 43 42 45 44 41 44 46 46 52 52 61 57 68 64 78 70 66 78 81 78 75
22 29 23 23 19 16 13 14 14 13 13 10 13 15 19 25 30 50 43 33 34 37 38 44 46 43 50 50 54 55 55 55 58 72 66 71 69 76 73 73 82 78 77 77
18 30 27 24 26 27 16 14 16 15 20 12 18 18 19 20 20 50 55 53 61 61 58 68 68 68 74 73 66 67 68 69 75 73 77 71 83 90 81 76 84 81 76 73
20 26 23 22 25 20 16 21 20 25 35 35 31 35 36 40 58 61 55 60 62 69 71 67 66 69 77 71 67 72 74 78 75 71 72 85 86 91 89 89 86 81 81 74
28 28 23 20 23 25 16 23 26 48 47 43 43 46 57 64 68 70 70 73 66 67 68 63 71 82 81 77 71 80 81 80 77 81 88 96 98 98 97 96 96 92 86 83
31 22 22 20 18 40 31 47 51 48 50 54 51 47 50 56 63 69 73 71 85 84 78 72 71 78 78 77 76 87 93 88 88 88 92 96 96 97 98 98 99 99 98 98
25 23 32 28 25 31 38 40 42 47 53 55 52 48 44 52 60 70 72 84 81 78 77 69 68 79 84 81 80 85 84 83 85 89 92 93 95 97 98 98 97 99 100 99
36 39 29 27 32 35 38 44 47 54 58 59 53 50 51 53 61 72 80 81 79 76 70 66 74 78 82 80 80 78 79 81 84 86 86 90 91 95 98 99 99 99 99 96
31 41 42 38 49 50 54 50 48 47 52 54 51 53 51 54 58 63 71 70 65 65 67 70 73 75 76 76 78 79 80 79 78 76 70 69 73 81 83 87 96 92 94 94
Wind_Speed
10 10 13 12 3 12 10 8 9 5 3 9 11 4 10 7 7 9 11 12 13 13 13 11 9 7 7 9 11 12 12 4 1 11 10 6 6 8 6 5 6 6 7 10
6 12 1 5 6 8 8 9 11 6 1 9 12 8 10 6 5 5 11 14 13 14 13 11 8 7 7 7 7 6 10 11 7 10 4 1 1 3 3 4 4 7 9 9
15 10 6 6 9 10 11 11 7 10 2 12 12 16 15 11 6 5 7 11 14 13 14 12 9 8 7 8 8 6 7 9 9 10 3 3 4 6 7 3 4 3 4 4
10 6 5 9 12 10 14 7 8 8 11 10 1 10 11 11 10 13 8 9 10 12 13 13 9 9 9 9 8 8 6 5 5 5 3 4 4 5 5 4 6 5 5 5
6 6 10 11 9 5 4 1 6 9 11 13 10 7 3 8 4 9 4 8 9 12 13 12 11 9 10 10 8 7 7 6 4 3 5 4 3 3 3 3 2 3 4 5
16 3 7 11 8 8 5 8 11 11 12 12 13 6 7 6 10 6 10 2 8 13 14 12 12 11 9 10 8 9 8 5 4 3 3 2 3 3 5 4 5 7 6 4
15 13 9 7 9 10 9 11 9 11 12 9 8 5 8 8 6 5 5 5 8 12 13 13 13 12 10 12 12 9 10 8 8 7 5 4 4 2 4 6 6 8 7 9
11 15 18 12 15 9 12 14 12 14 9 3 7 3 5 7 3 6 3 3 10 13 13 14 14 13 12 13 13 11 11 9 9 7 6 4 2 2 4 6 6 7 6 8
8 5 4 1 11 14 14 12 15 17 17 13 12 7 9 8 3 8 7 6 10 11 13 13 13 13 14 14 13 12 11 10 10 9 7 5 4 5 5 6 7 7 8 8
2 6 9 11 9 10 18 6 11 9 15 15 13 3 5 8 2 17 9 8 9 11 11 11 11 11 12 13 11 12 14 12 11 10 8 6 5 4 5 4 6 9 8 9
14 7 8 7 12 13 9 12 13 16 10 10 8 4 16 6 4 7 10 10 10 10 11 11 12 12 13 14 13 12 12 12 11 9 7 5 4 6 5 3 7 8 8 9
16 8 11 12 7 5 8 12 15 10 13 10 11 6 19 8 8 3 11 12 11 12 11 11 13 14 13 13 13 12 11 10 9 8 7 5 4 9 4 5 6 8 8 7
11 8 11 13 10 13 11 13 12 10 12 14 14 3 7 8 9 4 11 13 11 10 12 12 13 12 12 11 10 11 10 9 9 8 7 5 5 9 5 4 5 6 8 9
5 11 12 13 3 15 13 15 14 13 12 12 16 16 15 6 11 10 10 13 13 12 13 13 12 13 12 9 4 6 8 9 8 8 7 6 5 7 6 3 4 6 8 9
9 12 13 17 17 9 11 10 14 13 14 18 9 4 23 16 6 6 9 13 13 13 14 14 14 13 14 12 12 10 8 9 9 8 7 7 6 7 5 3 6 6 7 6
11 8 14 16 16 10 13 12 14 10 13 14 20 12 6 10 11 7 9 12 13 13 13 15 15 15 14 13 11 10 9 9 9 8 8 7 7 7 5 5 5 6 5 7
8 10 11 13 17 15 14 13 14 14 14 15 11 6 16 10 10 7 5 12 13 13 13 13 15 14 13 14 12 11 11 10 9 8 8 7 6 8 5 6 7 6 5 6
7 10 11 12 15 14 8 2 7 8 10 9 9 3 6 4 8 8 2 7 11 12 11 12 12 12 12 12 10 10 11 9 7 5 5 8 8 9 8 6 7 7 5 5
11 10 10 13 12 14 11 6 9 9 11 11 10 4 4 3 7 10 8 3 4 6 9 9 7 9 5 6 4 6 5 5 5 2 2 3 5 10 9 8 8 7 6 5
16 11 10 12 13 18 13 5 9 1 9 14 3 5 6 6 9 8 5 10 11 11 11 10 10 10 7 4 4 5 5 5 4 1 3 4 4 9 10 8 7 8 6 6
16 13 15 13 14 12 14 6 3 11 3 9 9 10 10 6 7 8 6 7 7 7 7 8 7 8 5 4 4 5 6 5 4 4 4 5 2 6 4 6 5 8 6 7
14 14 14 14 17 19 8 3 12 8 9 7 8 7 10 11 10 9 8 7 6 7 8 7 8 8 6 5 3 6 7 5 5 4 6 6 8 6 6 7 6 4 6 8
7 11 10 11 9 7 6 10 7 5 5 7 5 7 9 10 11 9 9 7 12 11 9 7 7 7 6 5 6 7 5 5 6 7 6 8 9 9 8 8 7 6 7 6
14 5 7 5 8 6 4 7 7 9 7 5 4 3 4 10 10 9 8 9 6 6 5 5 6 6 5 6 7 7 6 6 8 8 7 8 9 9 8 5 5 5 5 4
8 3 12 11 4 3 7 9 6 7 5 4 3 3 6 6 9 9 9 7 6 6 5 4 5 5 6 7 7 6 6 8 8 8 8 9 8 9 8 7 5 5 5 3
7 2 5 2 9 6 6 5 4 3 6 3 5 6 4 6 9 9 9 9 9 7 5 6 6 7 7 7 6 6 6 6 8 8 7 8 8 7 7 7 7 13 8 9
Wind_Direction
207 244 221 234 320 354 321 306 303 295 105 264 275 286 281 133 196 160 168 176 189 194 183 174 185 197 209 210 196 214 58 27 110 292 205 175 222 200 213 241 276 284 268 256
192 234 319 47 286 268 259 261 252 235 71 260 274 288 295 150 226 201 181 172 200 185 164 180 186 183 210 200 217 172 162 192 176 239 286 72 219 310 332 344 245 251 253 261
256 73 73 228 225 250 242 262 271 280 220 252 253 258 242 180 177 200 232 190 184 203 170 185 191 190 194 174 183 155 182 194 201 208 198 175 195 197 232 202 265 133 263 284
248 224 203 229 245 236 267 166 280 274 267 281 166 295 173 165 192 177 203 206 201 192 172 170 189 177 178 168 152 170 155 144 185 191 221 247 285 344 24 257 41 310 252 266
202 218 211 238 236 217 296 357 255 274 272 267 267 239 241 175 209 132 119 178 192 162 171 167 176 168 186 167 164 153 141 155 148 231 211 210 316 152 84 349 310 238 211 294
276 117 257 232 221 237 299 253 240 251 255 255 237 274 287 55 42 28 138 128 171 163 161 171 154 153 157 170 158 155 158 144 143 168 102 69 105 43 18 12 343 350 354 24
213 215 216 248 221 207 211 247 243 219 219 242 100 247 312 2 90 36 1 118 160 155 161 165 156 162 169 163 164 156 143 156 162 163 152 143 127 92 107 353 18 312 1 351
208 201 199 186 243 202 218 259 272 294 286 54 165 274 78 52 346 137 150 167 149 161 168 166 167 164 169 168 178 172 159 158 172 149 145 153 255 64 43 56 355 14 6 352
213 216 130 248 211 238 248 244 260 277 272 266 283 252 182 135 204 141 116 129 150 158 165 168 157 159 169 169 173 184 165 164 164 157 155 153 121 56 47 28 348 14 25 350
328 253 179 163 234 236 258 288 241 231 266 282 265 273 204 146 163 119 135 155 151 161 151 153 152 153 161 171 171 168 162 168 161 159 163 149 119 72 47 39 31 48 28 11
241 229 158 167 213 239 187 238 255 286 287 283 276 151 1 356 91 101 131 148 161 162 160 157 146 154 154 160 160 168 158 164 159 156 141 146 121 100 50 40 41 52 38 21
222 222 251 220 223 257 293 236 220 247 229 260 277 285 193 147 137 145 136 144 159 158 143 154 152 150 150 155 158 157 161 161 153 137 144 142 146 90 69 35 49 60 50 40
217 229 239 243 220 204 242 243 250 271 284 277 278 61 40 296 134 102 139 141 155 150 152 149 148 149 142 139 158 162 166 152 152 149 156 160 129 98 72 47 53 63 64 59
346 246 243 255 1 290 192 238 236 229 248 244 244 262 188 132 115 120 144 150 164 164 159 155 158 150 149 133 103 190 173 150 147 162 163 144 116 107 96 70 76 55 64 58
241 243 256 262 276 262 264 224 212 235 244 258 262 144 326 85 64 81 155 157 169 174 174 162 164 156 158 157 197 174 165 152 157 162 163 152 131 109 121 104 74 73 62 60
232 241 260 270 263 245 260 242 261 251 240 252 263 308 130 103 86 74 152 168 180 183 187 169 167 165 162 179 177 175 155 160 169 171 166 155 153 129 133 115 108 75 71 63
227 238 247 249 241 234 232 245 251 237 251 253 266 16 10 71 78 79 163 174 187 187 190 178 170 174 180 181 183 170 161 168 172 180 181 172 170 129 159 127 106 101 83 85
270 251 266 262 258 240 243 271 316 322 309 260 253 221 110 82 96 78 342 187 184 187 189 183 173 180 180 182 173 178 167 179 179 203 187 165 185 145 160 147 128 126 120 104
220 261 247 255 254 274 255 187 233 246 265 270 248 278 129 127 156 77 17 26 153 163 166 182 164 165 148 134 136 153 181 178 191 121 249 74 183 168 170 166 152 144 140 129
210 214 268 258 250 254 272 19 58 314 266 276 71 273 295 174 253 77 57 39 65 49 74 86 88 79 72 79 180 158 134 97 107 70 357 325 358 132 166 167 145 145 151 143
211 212 227 235 258 255 269 79 184 223 38 36 14 26 24 53 47 89 90 80 71 81 107 119 130 117 131 188 166 137 136 95 55 21 37 20 84 154 158 143 147 145 163 137
205 215 226 236 247 245 172 221 259 48 82 45 58 51 88 96 95 98 102 109 125 129 137 147 110 79 53 29 121 104 89 72 61 60 77 55 54 54 60 77 48 66 120 131
256 215 240 239 236 77 29 74 76 39 64 53 41 73 108 118 115 122 116 106 68 70 65 77 110 125 105 73 84 109 92 88 77 74 70 79 69 62 58 70 61 58 65 83
210 213 254 298 167 122 98 110 74 45 47 61 46 59 87 103 117 122 123 104 107 120 110 129 122 100 91 77 82 92 97 93 97 94 85 77 79 73 61 68 85 88 88 87
86 348 238 252 136 128 104 50 40 87 79 90 118 100 97 106 115 127 129 141 144 155 162 139 121 124 118 106 97 95 106 101 97 95 95 87 83 80 75 57 39 70 46 101
358 15 297 353 40 326 72 48 27 48 79 80 105 118 103 107 136 142 152 162 165 127 132 132 131 132 120 112 111 107 102 119 123 128 121 109 113 109 108 102 84 53 67 64